{"data":{"norad_id":52903,"intl_designator":"2022-067A","name":"CMS-02 (GSAT-24)","alt_names":[],"object_type":"PAYLOAD","status":"ACTIVE","operator":null,"country":"IND","launch_date":"2022-06-22","launch_site_code":"FRGUI","launch_vehicle":null,"mission":null,"orbit_class":"UNKNOWN","rcs_meters":null,"size_class":null,"mass_kg":null,"dimensions":null,"purposes":["comms"],"wikipedia_slug":null,"has_3d_model":false,"image_url":null,"decayed_at":null,"tle_current":{"epoch":"2026-09-20T03:37:48.337824Z","epoch_age_seconds":52160,"freshness":"FRESH","line1":"1 52903U 22067A   26263.15125391 -.00000169  00000+0  00000+0 0  9997","line2":"2 52903   0.0133 182.7209 0002081  80.1139 233.6807  1.00271925 15563","mean_motion":1.00271925,"eccentricity":0.0002081,"inclination_deg":0.0133,"raan_deg":182.7209,"arg_perigee_deg":80.1139,"mean_anomaly_deg":233.6807,"bstar":0,"rev_number":1556,"period_min":1436.094898946,"perigee_km":35777.7812416,"apogee_km":35795.330186708,"semimajor_km":42164.692714154,"source":"CELESTRAK","updated_at":"2026-09-20T09:00:35.304027Z"}}}